Barrow, AK

4:29 PM AKDT on June 23, 2018 (GMT -0800)
Wiley Post-Will Rogers Memorial

Weather History for PABR - January, 2017

Change the Weather History Date:

Saturday, January 14, 2017

  Actual Average Record
Temperature  
Mean Temperature -13 °F -14 °F  
Max Temperature -10 °F -7 °F 28 °F (1957)
Min Temperature -16 °F -20 °F -50 °F (1951)
Degree Days  
Heating Degree Days 78 79  
Month to date heating degree days 743 1086  
Since 1 July heating degree days 7702 9295  
Cooling Degree Days 0 0  
Month to date cooling degree days 0 0  
Year to date cooling degree days 0 0  
Moisture  
Dew Point -20 °F    
Average Humidity 72    
Maximum Humidity 77    
Minimum Humidity 70    
Precipitation  
Precipitation 0.00 in 0.00 in 0.11 in (1952)
Month to date precipitation 0.46 0.06  
Year to date precipitation 0.46 0.06  
Snow  
Snow 0.00 in 0.10 in 1.50 in (2000)
Month to date snowfall 4.2 1.2  
Since 1 July snowfall 21.5 25.0  
Snow Depth 6.00 in    
Sea Level Pressure  
Sea Level Pressure 29.83 in    
Wind  
Wind Speed 16 mph (NE)    
Max Wind Speed 21 mph    
Max Gust Speed -    
Visibility 5 miles    
Events      
T = Trace of Precipitation, MM = Missing Value Source: NWS Daily Summary

Daily Weather History Graph

Daily Weather History Graph

Search for Another Location

Airport or City:

Astronomy

Jan. 14, 2017 Rise Set
Actual Time 1:03 PM AKST 2:08 PM AKST
Civil Twilight 11:06 AM AKST 4:07 PM AKST
Nautical Twilight 9:22 AM AKST 5:50 PM AKST
Astronomical Twilight 8:01 AM AKST 7:12 PM AKST
Moon 7:37 PM AKST (1/14) 12:17 PM AKST (1/14)
Length of Visible Light 5h 01m
Length of Day
1h 04m
Waning Gibbous, 93% of the Moon is Illuminated
Jan 14
Waning Gibbous
Jan 19
Last Quarter
Jan 27
New
Feb 3
First Quarter
Feb 10
Full

Hourly Weather History & Observations

Time (AKST) Temp. Windchill Dew Point Humidity Pressure Visibility Wind Dir Wind Speed Gust Speed Precip Events Conditions
12:53 AM -11.0 °F -33.5 °F -18.0 °F 71% 29.99 in 5.0 mi NE 15.0 mph - N/A   Clear
1:32 AM -11.9 °F -33.0 °F -18.0 °F 74% 29.97 in 3.0 mi NE 12.7 mph - N/A   Scattered Clouds
1:41 AM -11.9 °F -33.8 °F -18.9 °F 71% 29.97 in 3.0 mi NE 13.8 mph - N/A   Mostly Cloudy
1:51 AM -11.2 °F -32.9 °F -18.4 °F 70% 29.97 in 3.0 mi NE 13.8 mph - N/A   Scattered Clouds
1:53 AM -11.9 °F -35.4 °F -18.9 °F 71% 29.98 in 3.0 mi NE 16.1 mph - N/A   Scattered Clouds
2:53 AM -13.0 °F -36.0 °F -18.9 °F 75% 29.97 in 7.0 mi NE 15.0 mph - N/A   Partly Cloudy
3:53 AM -11.9 °F -37.4 °F -18.9 °F 71% 29.96 in 10.0 mi NE 19.6 mph - N/A   Clear
4:53 AM -11.9 °F -35.4 °F -18.9 °F 71% 29.95 in 10.0 mi ENE 16.1 mph - N/A   Clear
5:53 AM -13.0 °F -36.0 °F -18.9 °F 75% 29.94 in 10.0 mi NE 15.0 mph - N/A   Clear
6:53 AM -13.0 °F -36.8 °F -18.9 °F 75% 29.93 in 8.0 mi NE 16.1 mph - N/A   Clear
7:53 AM -13.0 °F -36.8 °F -20.0 °F 71% 29.92 in 10.0 mi ENE 16.1 mph - N/A   Clear
8:53 AM -13.0 °F -37.5 °F -18.9 °F 75% 29.91 in 10.0 mi NE 17.3 mph - N/A   Clear
9:53 AM -11.9 °F -33.8 °F -18.9 °F 71% 29.91 in 7.0 mi NE 13.8 mph - N/A   Clear
10:53 AM -11.9 °F -36.1 °F -18.0 °F 74% 29.88 in 8.0 mi NE 17.3 mph - N/A   Clear
11:53 AM -11.0 °F -36.2 °F -18.0 °F 71% 29.86 in 8.0 mi NNE 19.6 mph - N/A   Clear
12:53 PM -11.9 °F -38.0 °F -18.9 °F 71% 29.85 in 7.0 mi NE 20.7 mph - N/A   Clear
1:41 PM -11.9 °F -38.0 °F -18.9 °F 71% 29.83 in 3.0 mi NE 20.7 mph - N/A   Partly Cloudy
1:53 PM -11.9 °F -36.1 °F -18.9 °F 71% 29.84 in 3.0 mi NE 17.3 mph - N/A   Partly Cloudy
2:53 PM -13.0 °F -36.8 °F -20.0 °F 71% 29.83 in 3.0 mi NE 16.1 mph - N/A   Scattered Clouds
2:56 PM -13.0 °F -37.5 °F -20.0 °F 71% 29.82 in 2.5 mi NE 17.3 mph - N/A   Scattered Clouds
3:43 PM -15.0 °F -39.3 °F -22.0 °F 71% 29.82 in 7.0 mi NE 16.1 mph - N/A   Partly Cloudy
3:53 PM -15.0 °F -41.4 °F -22.0 °F 71% 29.82 in 7.0 mi NE 19.6 mph - N/A   Clear
4:53 PM -15.0 °F -40.7 °F -20.9 °F 75% 29.81 in 5.0 mi NE 18.4 mph - N/A   Clear
5:02 PM -14.1 °F -38.2 °F -20.9 °F 71% 29.80 in 3.0 mi NNE 16.1 mph - N/A   Partly Cloudy
5:53 PM -15.0 °F -40.0 °F -20.9 °F 75% 29.81 in 5.0 mi NE 17.3 mph - N/A   Partly Cloudy
6:07 PM -15.0 °F -39.3 °F -22.0 °F 71% 29.79 in 2.5 mi NE 16.1 mph - N/A   Mostly Cloudy
6:22 PM -15.0 °F -36.8 °F -22.0 °F 71% 29.79 in 1.2 mi NE 12.7 mph - N/A   Overcast
6:36 PM -16.1 °F -39.1 °F -23.1 °F 71% 29.79 in 2.5 mi NE 13.8 mph - N/A   Overcast
6:44 PM -16.1 °F -40.7 °F -23.1 °F 71% 29.79 in 4.0 mi NE 16.1 mph - N/A   Scattered Clouds
6:53 PM -16.1 °F -40.7 °F -22.0 °F 74% 29.79 in 4.0 mi NE 16.1 mph - N/A   Scattered Clouds
7:05 PM -16.1 °F -39.9 °F -23.1 °F 71% 29.78 in 2.5 mi NE 15.0 mph - N/A   Mostly Cloudy
7:11 PM -16.1 °F -39.1 °F -22.0 °F 74% 29.78 in 3.0 mi NE 13.8 mph - N/A   Scattered Clouds
7:53 PM -14.8 °F -38.3 °F -20.2 °F 77% 29.77 in 1.8 mi NNE 15.0 mph - N/A   Mostly Cloudy
8:13 PM -14.1 °F -40.2 °F -20.0 °F 75% 29.76 in 2.0 mi NNE 19.6 mph - N/A   Overcast
8:23 PM -13.0 °F -38.8 °F -20.0 °F 71% 29.76 in 3.0 mi NNE 19.6 mph - N/A   Mostly Cloudy
8:44 PM -13.0 °F -39.4 °F -20.0 °F 71% 29.77 in 7.0 mi NNE 20.7 mph - N/A   Scattered Clouds
8:53 PM -13.0 °F -38.2 °F -20.0 °F 71% 29.78 in 7.0 mi NNE 18.4 mph - N/A   Partly Cloudy
9:25 PM -13.0 °F -36.8 °F -20.0 °F 71% 29.76 in 2.5 mi NNE 16.1 mph - N/A   Haze
9:38 PM -13.0 °F -36.8 °F -20.0 °F 71% 29.76 in 4.0 mi NNE 16.1 mph - N/A   Mostly Cloudy
9:53 PM -11.9 °F -37.4 °F -18.9 °F 71% 29.76 in 4.0 mi NNE 19.6 mph - N/A   Scattered Clouds
10:29 PM -11.9 °F -36.1 °F -18.9 °F 71% 29.74 in 3.0 mi NNE 17.3 mph - N/A   Haze
10:38 PM -11.9 °F -34.6 °F -18.9 °F 71% 29.74 in 2.0 mi NNE 15.0 mph - N/A   Haze
10:50 PM -11.2 °F -34.4 °F -18.4 °F 70% 29.74 in 5.0 mi NE 16.1 mph - N/A   Haze
10:53 PM -11.9 °F -36.1 °F -18.9 °F 71% 29.75 in 5.0 mi NE 17.3 mph - N/A   Haze
11:50 PM -13.0 °F -35.2 °F -20.2 °F 70% 29.73 in 2.5 mi NE 13.8 mph - N/A   Mostly Cloudy
11:53 PM -14.1 °F -38.2 °F -20.0 °F 75% 29.74 in 2.0 mi NE 16.1 mph - N/A   Mostly Cloudy